Regional Weather Roundup
Issued by NWS Cleveland, OH

Home | Current Version | Previous Version | Text Only | Print | Product List | Glossary On
Versions: 1 2 3 4 5 6 7 8 9 10 11 12 13 14 15 16 17 18 19 20 21 22 23 24 25 26 27 28 29 30 31 32 33 34 35 36 37 38 39 40 41 42 43 44 45 46 47 48 49 50
000
ASUS41 KCLE 130312
RWRCLE
OHIO REGIONAL WEATHER ROUNDUP
NATIONAL WEATHER SERVICE WILMINGTON, OH
1000 PM EST FRI FEB 12 2016

NOTE: "FAIR" INDICATES FEW OR NO CLOUDS BELOW 12,000 FEET WITH NO
SIGNIFICANT WEATHER AND/OR OBSTRUCTIONS TO VISIBILITY.

OHZ001>008-015>018-024>027-034-035-043-044-130400-
   NORTHWEST OHIO

CITY           SKY/WX    TMP DP  RH WIND       PRES   REMARKS
DEFIANCE       FAIR      16   7  67 NW13G22   30.21R WCI   2
FINDLAY        FAIR      16   7  67 NW17      30.16R WCI   0
TOLEDO EXPRESS FAIR      14   4  64 NW14      30.16R WCI  -1
TOLEDO EXEC    FAIR      16   5  62 NW17G25   30.17R WCI   0
LIMA           LGT SNOW  15   9  76 NW20G28   30.18R WCI  -2
$$

OHZ009>014-019>023-028>033-038-089-130400-
   NORTHEAST OHIO

CITY           SKY/WX    TMP DP  RH WIND       PRES   REMARKS
CLE-HOPKINS    FLURRIES  18   5  57 NW20G26   30.08R WCI   2
CLE-LAKEFRONT  CLOUDY    21   9  59 NW28G38   30.05R WCI   3
CUY CO. ARPT   FLURRIES  19   9  63 NW16G29   30.03R WCI   5
LORAIN-ELYRIA  FLURRIES  17   5  59 N17G28    30.08R WCI   1
ASHTABULA      CLOUDY    18   5  57 NW15G22   29.99R WCI   4
AKRON-CANTON   LGT SNOW  15  11  83 W15       30.02R VSB 1   WCI   0
WOOSTER        MOCLDY    15   6  67 NW16      30.06R WCI  -1
MANSFIELD      MOCLDY    14   7  73 W10G21    30.07R WCI   1
YOUNGSTOWN     LGT SNOW  16  12  84 NW15      29.97R WCI   1
$$

OHZ042-051>053-060>062-070>072-077>081-130400-
  SOUTHWEST OHIO

CITY           SKY/WX    TMP DP  RH WIND       PRES   REMARKS
CINC-COVINGTON MOCLDY    22   9  57 NW17G23   30.23R WCI   8
CINC-LUNKEN    CLOUDY    22  13  68 NW8G20    30.28R WCI  12
HAMILTON       FAIR      22   8  55 NW15      30.26R WCI   9
DAYTON         MOCLDY    16   7  67 NW14      30.21R WCI   2
WRIGHT-PAT AFB PTCLDY    18   6  58 NW14      30.21R WCI   4
DAYTON GENERAL CLOUDY    19   9  65 NW13G21   30.21R WCI   6
WILMINGTON     FLURRIES  18  10  71 NW15      30.19R WCI   4
$$

OHZ036-037-039>041-045>050-054>059-063>069-073>076-082>088-130400-
  CENTRAL AND SOUTHEAST OHIO

CITY           SKY/WX    TMP DP  RH WIND       PRES   REMARKS
COLUMBUS       MOCLDY    18   7  62 NW15      30.16R WCI   4
OSU AIRPORT    FAIR      17   7  64 NW23      30.16R WCI  -1
BOLTON FIELD   FAIR      17   8  66 NW14G23   30.18R WCI   3
RICKENBACK AFB FAIR      18   7  63 NW15G26   30.18R WCI   4
NEWARK         CLOUDY    18   8  65 NW14G31   30.14R WCI   4
MARION         FAIR      15   6  67 NW17G26   30.14R WCI  -1
LANCASTER      FAIR      19   7  59 NW14G29   30.16R WCI   6
ZANESVILLE     FAIR      20   7  57 NW16G30   30.11R HAZE    WCI   6
NEW PHILLY     FAIR      18   7  62 W17G26    30.08R WCI   3
$$



USA.gov is the U.S. government's official web portal to all federal, state and local government web resources and services.